[[{"header":{"parameterUnit":"m.s-1","parameterCategory":1,"la1":30.2991,"la2":30.254,"lo1":-89.0895,"lo2":-89.0444,"dy":0.0017,"dx":0.0017,"nx":28,"ny":28,"refTime":"2024-04-05T03:00:00:Z","depth":0,"parameterNumber":2,"parameterNumberName":"U-component_of_WINDS"},"data":[0,0,0,0,0,0,0,0,0,0,0,0,0,0,0,0,0,0,0,0,0,0,0,0,0,0,0,0,0,0,0,0,0,0,0,0,0,0,0,0,0,0,0,0,0,0,0,0,0,0,0,0,0,0,0,0,0,0,2.2483,2.2484,0,2.258,2.2581,2.2582,2.2641,2.2642,2.2642,2.2642,2.2743,2.2745,2.2748,0,0,0,0,0,0,0,0,0,0,0,0,0,2.2352,2.2354,2.2483,2.2484,2.2485,2.258,2.2581,2.2582,2.2641,2.2642,2.2642,2.2642,2.2742,2.2745,2.2748,0,0,0,0,0,0,0,0,0,0,0,0,0,2.2425,2.2354,2.2483,2.2526,2.2531,2.2579,2.2581,2.2583,2.2641,2.2642,2.2642,2.2643,2.2741,2.2745,2.2748,2.2761,0,0,2.2759,2.2761,0,0,0,0,0,0,0,0,2.242,2.2429,2.2518,2.2523,2.2529,2.2599,2.2572,2.2643,2.2641,2.2599,2.2642,2.2643,2.2695,2.2702,2.2719,2.2766,2.277,2.276,2.2762,2.2763,2.2764,0,0,0,0,0,0,0,2.2415,2.2426,2.2521,2.252,2.2526,2.2542,2.2553,2.2585,2.2643,2.2603,2.2608,2.2618,2.2698,2.2716,2.2722,2.2772,2.2759,2.2763,2.2765,2.2766,2.2837,2.2837,0,0,0,0,0,0,2.2403,2.2421,2.2518,2.2524,2.2474,2.2544,2.2556,2.2576,2.2643,2.2654,2.2618,2.2621,2.2709,2.2718,2.2726,2.2748,2.2763,2.2767,2.2769,2.2838,2.2837,2.2837,0,0,0,0,0,0,2.24,2.2411,2.2514,2.2474,2.2488,2.2545,2.2568,2.2578,2.2596,2.2654,2.2665,2.2625,2.271,2.2721,2.2753,2.2752,2.2768,2.2772,2.2838,2.2838,2.2837,2.2789,0,0,0,0,0,0,2.2396,2.241,2.2414,2.2473,2.249,2.2538,2.2568,2.2579,2.2602,2.2606,2.2664,2.2674,2.2711,2.2747,2.2756,2.2757,2.2774,2.2838,2.2838,2.2837,2.2791,2.2787,2.2784,0,0,0,0,0,2.2391,2.2397,2.2414,2.2426,2.2497,2.2538,2.2547,2.2589,2.2601,2.2607,2.2645,2.2673,2.275,2.275,2.2761,2.2762,2.2839,2.2838,2.2837,2.2793,2.2788,2.2784,0,0,0,0,0,0,2.2335,2.2405,2.2425,2.245,2.2488,2.2548,2.2556,2.2583,2.2618,2.2621,2.2672,2.2685,2.2712,2.2741,2.2739,2.278,2.2798,2.2799,2.276,2.2756,2.2753,2.2745,2.2777,0,0,0,0,0,2.2326,2.2353,2.2413,2.2429,2.2447,2.2498,2.2517,2.2547,2.2588,2.2604,2.2644,2.2684,2.2718,2.2739,2.2773,2.2796,2.2811,2.2803,2.2799,2.2796,2.2797,2.2813,2.2811,2.2835,2.2835,2.2835,0,0,2.2307,2.2348,2.2362,2.2419,2.2451,2.2479,2.2511,2.2538,2.256,2.2609,2.2641,2.2672,2.272,2.2748,2.2763,2.2773,2.2794,2.2795,2.2792,2.2795,2.2812,2.281,2.2808,2.2835,2.2835,2.2835,0,0,2.2286,2.232,2.2338,2.237,2.2419,2.2454,2.2458,2.2515,2.2538,2.2572,2.2609,2.2636,2.2693,2.2726,2.275,2.2745,2.2772,2.2754,2.2735,2.2751,2.2749,2.2748,2.2747,2.2746,2.2755,2.2755,2.2755,0,2.2256,2.2299,2.2344,2.237,2.2394,2.244,2.246,2.2489,2.2547,2.2564,2.2574,2.2648,2.2683,2.272,2.2719,2.2737,2.2745,2.2748,2.2746,2.2745,2.2744,2.2744,2.2743,2.2752,2.2753,2.2753,2.2753,0,2.226,2.2289,2.2298,2.2353,2.2379,2.2401,2.2451,2.2472,2.25,2.2534,2.2569,2.2613,2.2658,2.2669,2.2696,2.2711,2.2716,2.2736,2.2754,2.2739,2.274,2.274,2.2749,2.275,2.2751,2.2751,0,0,2.2205,2.2287,2.2289,2.2316,2.2375,2.2399,2.2424,2.2468,2.2486,2.2525,2.2549,2.2597,2.2616,2.2643,2.2675,2.2688,2.2683,2.2707,2.2709,2.2701,2.2705,2.269,2.2689,2.2702,2.2702,2.2702,2.2701,0,2.2194,2.2241,2.2284,2.2316,2.2345,2.239,2.2413,2.2453,2.2486,2.2516,2.2553,2.2586,2.2608,2.2625,2.2641,2.268,2.2685,2.2681,2.2726,2.2727,2.2712,2.2689,2.2673,2.267,2.2701,2.2702,2.2702,0,2.2186,2.2224,2.2259,2.2318,2.2331,2.235,2.2396,2.2423,2.247,2.2493,2.2525,2.2558,2.2589,2.2605,2.265,2.2646,2.2667,2.269,2.2691,2.2697,2.2713,2.2695,2.2669,2.2669,2.2702,2.2702,2.2702,0,2.2144,2.2204,2.2233,2.2254,2.2323,2.2336,2.2365,2.2412,2.2436,2.2476,2.2493,2.2535,2.2559,2.2592,2.2637,2.2644,2.2677,2.2696,2.2698,2.2697,2.2703,2.2702,2.2681,2.2716,2.2716,2.2716,2.2716,0,2.2127,2.2147,2.2215,2.2233,2.2258,2.2308,2.2331,2.2365,2.2406,2.2433,2.2475,2.2499,2.2557,2.2589,2.2624,2.2656,2.2666,2.2687,2.2696,2.2684,2.2681,2.2698,2.2699,2.2716,2.2716,2.2716,2.2716,0,2.2083,2.213,2.2165,2.2228,2.2244,2.2259,2.2314,2.2334,2.237,2.2403,2.2414,2.2471,2.2511,2.2559,2.2614,2.2638,2.2667,2.2681,2.2651,2.2657,2.2656,2.2656,2.2646,2.2647,2.268,2.268,2.2679,0,2.2069,2.2086,2.2151,2.2171,2.2199,2.2232,2.2258,2.2308,2.2333,2.2389,2.2403,2.2446,2.2483,2.2544,2.2591,2.2634,2.265,2.2643,2.2656,2.2643,2.2651,2.2649,2.2652,2.2639,2.2639,2.2638,2.2638,0,2.204,2.2063,2.2097,2.2141,2.217,2.2207,2.2246,2.2261,2.232,2.2346,2.2387,2.2416,2.2473,2.2516,2.2565,2.2597,2.2628,2.2634,2.2637,2.2624,2.2606,2.2617,2.2642,2.2633,2.2634,2.2634,2.2634,2.2635,2.2011,2.2029,2.2078,2.2116,2.2151,2.2187,2.2209,2.2249,2.2284,2.2334,2.2362,2.2403,2.2452,2.2521,2.2552,2.2586,2.2597,2.26,2.2602,2.2602,2.2598,2.2601,2.2595,2.2595,2.2595,2.2595,2.2595,0,2.1985,2.2019,2.2054,2.2107,2.2138,2.2164,2.2209,2.2233,2.2268,2.2311,2.2347,2.2396,2.2438,2.2489,2.2535,2.2552,2.2568,2.2563,2.2562,2.2569,2.2585,2.2579,2.2549,2.2549,2.2549,2.2549,2.2549,2.2549,2.1974,2.2006,2.2035,2.2086,2.2121,2.2161,2.2184,2.2218,2.2253,2.2305,2.234,2.2373,2.242,2.247,2.2511,2.2525,2.254,2.2531,2.2549,2.2564,2.2568,2.2571,2.2565,2.2534,2.2534,2.2531,2.2531,2.2531]},{"header":{"parameterUnit":"m.s-1","parameterCategory":1,"la1":30.2991,"la2":30.254,"lo1":-89.0895,"lo2":-89.0444,"dy":0.0017,"dx":0.0017,"nx":28,"ny":28,"refTime":"2024-04-05T03:00:00:Z","depth":0,"parameterNumber":3,"parameterNumberName":"V-component_of_WINDS"},"data":[0,0,0,0,0,0,0,0,0,0,0,0,0,0,0,0,0,0,0,0,0,0,0,0,0,0,0,0,0,0,0,0,0,0,0,0,0,0,0,0,0,0,0,0,0,0,0,0,0,0,0,0,0,0,0,0,0,0,-1.8737,-1.8738,0,-1.8766,-1.8766,-1.8766,-1.8851,-1.8853,-1.8855,-1.8857,-1.888,-1.8879,-1.8878,0,0,0,0,0,0,0,0,0,0,0,0,0,-1.8754,-1.8753,-1.8737,-1.8738,-1.8738,-1.8766,-1.8766,-1.8766,-1.8851,-1.8853,-1.8855,-1.8858,-1.888,-1.8879,-1.8878,0,0,0,0,0,0,0,0,0,0,0,0,0,-1.8761,-1.8753,-1.8737,-1.8784,-1.8788,-1.8765,-1.8766,-1.8766,-1.885,-1.8853,-1.8856,-1.8859,-1.8881,-1.8879,-1.8877,-1.881,0,0,-1.8872,-1.8871,0,0,0,0,0,0,0,0,-1.876,-1.876,-1.8776,-1.878,-1.8785,-1.8808,-1.8781,-1.8781,-1.885,-1.8826,-1.8857,-1.886,-1.8853,-1.8854,-1.8853,-1.8811,-1.8812,-1.8872,-1.8871,-1.887,-1.887,0,0,0,0,0,0,0,-1.876,-1.8759,-1.8748,-1.8777,-1.8782,-1.8802,-1.8806,-1.8781,-1.8823,-1.8829,-1.8835,-1.8837,-1.8856,-1.8854,-1.8854,-1.8813,-1.8872,-1.8871,-1.8869,-1.8869,-1.8722,-1.872,0,0,0,0,0,0,-1.8753,-1.8758,-1.8748,-1.8749,-1.878,-1.88,-1.8804,-1.8798,-1.8824,-1.8831,-1.8835,-1.8841,-1.8856,-1.8856,-1.8855,-1.8782,-1.887,-1.8869,-1.8868,-1.8725,-1.8722,-1.8719,0,0,0,0,0,0,-1.8753,-1.8751,-1.8746,-1.8756,-1.8757,-1.8797,-1.8788,-1.8797,-1.8795,-1.8829,-1.8837,-1.8826,-1.8858,-1.8858,-1.8822,-1.8784,-1.8868,-1.8866,-1.8729,-1.8724,-1.872,-1.8632,0,0,0,0,0,0,-1.8753,-1.8751,-1.8726,-1.8755,-1.8756,-1.8713,-1.8786,-1.8795,-1.8793,-1.8801,-1.8822,-1.8828,-1.886,-1.8824,-1.8821,-1.8783,-1.8865,-1.8732,-1.8727,-1.8722,-1.8639,-1.8626,-1.8614,0,0,0,0,0,-1.8754,-1.8698,-1.8724,-1.8723,-1.8726,-1.8711,-1.8712,-1.8751,-1.8789,-1.8765,-1.8787,-1.8827,-1.8788,-1.882,-1.8816,-1.8778,-1.8735,-1.8728,-1.8722,-1.8644,-1.8628,-1.8615,0,0,0,0,0,0,-1.8661,-1.8702,-1.8732,-1.8684,-1.8694,-1.8725,-1.8695,-1.8732,-1.873,-1.8737,-1.8785,-1.8789,-1.8748,-1.8759,-1.8793,-1.8717,-1.8769,-1.8761,-1.8711,-1.8696,-1.8684,-1.8682,-1.8864,0,0,0,0,0,-1.8635,-1.8621,-1.8658,-1.8612,-1.8615,-1.8654,-1.8649,-1.868,-1.8691,-1.8694,-1.8714,-1.8722,-1.8713,-1.8704,-1.8697,-1.8641,-1.8648,-1.8613,-1.86,-1.859,-1.8583,-1.8559,-1.8544,-1.8698,-1.8698,-1.8698,0,0,-1.8581,-1.8602,-1.859,-1.8594,-1.8605,-1.8589,-1.8657,-1.8636,-1.8625,-1.8691,-1.866,-1.8675,-1.8687,-1.8643,-1.8624,-1.865,-1.8543,-1.8582,-1.8573,-1.8572,-1.855,-1.8536,-1.8523,-1.8693,-1.8694,-1.8695,0,0,-1.8476,-1.8489,-1.8455,-1.8466,-1.8483,-1.851,-1.8502,-1.8529,-1.8542,-1.8513,-1.8563,-1.855,-1.853,-1.8539,-1.854,-1.8442,-1.848,-1.8438,-1.8373,-1.8349,-1.8337,-1.8326,-1.8294,-1.8282,-1.8431,-1.843,-1.843,0,-1.8406,-1.8385,-1.8431,-1.8409,-1.8411,-1.8473,-1.8439,-1.8446,-1.8458,-1.8458,-1.8488,-1.8469,-1.8481,-1.8441,-1.8418,-1.8416,-1.8409,-1.8436,-1.8335,-1.8325,-1.8316,-1.8286,-1.8273,-1.8425,-1.8426,-1.8427,-1.8427,0,-1.8301,-1.8286,-1.8255,-1.8271,-1.8268,-1.8239,-1.8281,-1.8273,-1.8305,-1.8329,-1.8299,-1.8317,-1.8316,-1.8308,-1.8337,-1.8273,-1.829,-1.8327,-1.838,-1.8296,-1.8268,-1.8257,-1.8418,-1.842,-1.8422,-1.8423,0,0,-1.8135,-1.818,-1.8168,-1.8177,-1.8202,-1.8192,-1.8167,-1.8169,-1.8162,-1.8169,-1.8151,-1.8135,-1.8171,-1.8173,-1.8203,-1.8181,-1.8107,-1.8221,-1.8222,-1.8202,-1.8041,-1.8015,-1.8001,-1.8132,-1.813,-1.8128,-1.8041,0,-1.8038,-1.8,-1.8043,-1.7996,-1.7985,-1.8045,-1.8024,-1.8037,-1.8059,-1.8052,-1.8076,-1.8066,-1.8112,-1.8115,-1.8095,-1.8119,-1.8075,-1.8126,-1.8116,-1.8115,-1.8113,-1.7986,-1.7957,-1.7874,-1.8031,-1.8029,-1.8027,0,-1.7918,-1.7925,-1.7878,-1.791,-1.7907,-1.7887,-1.7895,-1.7887,-1.7904,-1.7922,-1.7926,-1.7964,-1.7943,-1.7995,-1.7967,-1.8,-1.7999,-1.801,-1.8008,-1.801,-1.8067,-1.7986,-1.7849,-1.7837,-1.801,-1.8012,-1.8013,0,-1.7807,-1.7802,-1.7775,-1.7781,-1.7817,-1.7803,-1.7817,-1.7837,-1.7837,-1.7842,-1.7843,-1.7845,-1.7846,-1.7847,-1.7885,-1.7919,-1.7853,-1.7907,-1.7869,-1.7868,-1.7853,-1.7853,-1.7715,-1.7848,-1.7848,-1.7848,-1.7848,0,-1.7694,-1.7664,-1.7726,-1.7709,-1.7678,-1.7727,-1.7694,-1.7714,-1.7732,-1.7721,-1.7772,-1.7759,-1.781,-1.7803,-1.7832,-1.7807,-1.7806,-1.782,-1.7829,-1.7817,-1.7815,-1.7817,-1.7825,-1.7845,-1.7846,-1.7846,-1.7847,0,-1.7564,-1.7604,-1.7579,-1.7617,-1.7626,-1.7602,-1.7634,-1.762,-1.7648,-1.7632,-1.7632,-1.7673,-1.7669,-1.7707,-1.7707,-1.7728,-1.7689,-1.7706,-1.7684,-1.769,-1.765,-1.7655,-1.751,-1.7495,-1.7635,-1.7633,-1.7632,0,-1.7491,-1.747,-1.7507,-1.7504,-1.7517,-1.7511,-1.7513,-1.7561,-1.756,-1.758,-1.7564,-1.7565,-1.7567,-1.7557,-1.7587,-1.7589,-1.7608,-1.7557,-1.7608,-1.7598,-1.761,-1.7612,-1.7612,-1.7546,-1.7545,-1.7543,-1.7542,0,-1.7357,-1.738,-1.7381,-1.739,-1.7391,-1.74,-1.7411,-1.7406,-1.7459,-1.7455,-1.7453,-1.7455,-1.7459,-1.7459,-1.7468,-1.7482,-1.7521,-1.7526,-1.7518,-1.7506,-1.7496,-1.7504,-1.7657,-1.7529,-1.753,-1.7531,-1.7532,-1.7533,-1.7255,-1.7241,-1.7267,-1.7267,-1.7282,-1.7293,-1.7284,-1.7311,-1.7311,-1.732,-1.7348,-1.7341,-1.7361,-1.7378,-1.7389,-1.7384,-1.7409,-1.7396,-1.7393,-1.7389,-1.7384,-1.7495,-1.7385,-1.7386,-1.7386,-1.7387,-1.7387,0,-1.7127,-1.7148,-1.7148,-1.7165,-1.7166,-1.7206,-1.7222,-1.722,-1.7214,-1.7231,-1.7234,-1.7233,-1.7234,-1.7266,-1.7271,-1.7261,-1.728,-1.7261,-1.7263,-1.7267,-1.736,-1.7368,-1.7247,-1.7247,-1.7247,-1.7247,-1.7247,-1.7247,-1.7061,-1.704,-1.7066,-1.7054,-1.7074,-1.707,-1.7077,-1.7087,-1.7102,-1.7099,-1.7102,-1.7123,-1.7147,-1.7155,-1.7158,-1.7168,-1.7168,-1.7144,-1.7159,-1.7246,-1.726,-1.7273,-1.7281,-1.7143,-1.7143,-1.7067,-1.7067,-1.7066]}]]